Theta_e
285 285 285 284 284 282 282 283 283 285 285 285 284 284 285 285 284 284 284 283 284 284 285 285 285 286 286 286 286 286 286 286 286 286 286 286 286 286 286 286 285 285 285 285 285 284 284 284 284 284 284 283 284 284 284 284 283 284 284 284 284 284 285 285 285 285 283 282 282 283 282 283 282 283 283 283 283 285 287 285 285 284 285 286 287
283 283 284 285 284 284 283 283 283 283 283 283 283 283 283 284 284 284 283 283 283 283 283 284 284 285 285 285 285 285 285 286 286 286 286 286 286 287 286 286 285 285 285 284 285 285 284 284 284 284 284 283 284 284 284 283 283 283 283 283 283 284 284 285 285 285 285 280 280 280 280 282 282 283 283 282 282 284 285 284 284 284 284 284 284
281 281 281 281 281 281 281 281 281 282 282 282 282 282 282 283 283 282 281 281 282 282 282 283 283 283 283 284 284 284 285 285 285 285 285 285 285 285 286 286 285 285 285 285 285 285 284 284 284 284 285 284 284 283 283 283 283 283 284 283 283 284 283 284 284 284 284 282 281 280 280 281 282 282 283 284 283 284 284 283 282 283 284 283 283
280 280 280 279 278 278 279 279 280 279 280 281 281 282 282 282 282 282 281 280 281 281 281 282 282 283 283 283 283 283 283 284 284 285 285 285 285 285 285 285 285 285 285 285 285 285 284 284 284 284 283 283 284 284 283 283 283 283 283 284 283 284 284 282 283 284 283 283 280 280 280 280 281 282 283 283 282 282 283 283 282 281 282 282 282
280 280 279 279 279 279 278 278 278 279 279 280 280 281 281 282 282 282 281 280 281 281 281 281 281 282 282 282 282 282 283 283 284 284 284 284 284 284 284 285 285 285 285 285 286 285 285 285 285 284 283 283 283 283 283 283 283 283 283 283 283 283 284 283 283 283 283 282 281 279 280 280 282 281 282 281 280 281 281 281 281 281 281 281 281
279 279 278 278 278 278 278 277 278 278 278 279 280 280 281 281 281 281 281 280 280 280 280 281 281 281 281 281 282 282 282 283 283 283 284 284 284 284 284 284 284 284 285 285 284 284 285 285 285 284 284 283 284 284 283 283 283 283 283 283 283 283 282 282 282 283 283 283 282 279 278 279 279 279 280 281 280 280 279 279 278 279 279 279 279
279 279 279 278 278 278 277 278 278 278 278 279 279 279 279 280 279 280 280 280 279 279 279 279 280 280 281 281 281 282 282 282 282 283 283 283 283 284 284 283 284 284 284 284 285 284 284 284 284 284 284 284 284 284 284 283 284 283 283 283 283 283 282 282 282 282 282 283 282 280 280 279 280 279 279 281 281 281 280 278 277 278 278 279 279
279 279 278 279 278 279 278 278 278 279 279 278 278 279 279 279 279 279 279 279 279 279 279 279 280 280 280 281 281 281 281 281 282 282 282 282 283 283 283 283 283 283 284 284 284 284 284 284 284 284 284 284 284 284 284 284 284 284 284 284 283 283 282 282 282 282 282 282 283 281 279 279 278 278 279 279 279 278 279 279 278 277 277 279 279
279 278 278 278 279 279 280 280 281 281 280 280 279 279 279 278 279 279 278 279 279 279 279 279 278 278 279 279 280 281 281 281 282 281 281 282 282 282 282 283 283 283 283 283 284 284 284 284 284 285 285 285 286 286 286 286 285 284 284 284 283 283 283 283 283 283 283 283 282 282 278 278 279 279 277 277 278 279 279 279 279 279 279 278 279
278 278 278 278 278 279 279 279 280 280 280 280 280 280 280 280 280 279 279 279 279 279 278 278 278 278 278 278 278 279 280 281 282 285 286 284 282 283 283 283 283 282 282 283 283 283 283 284 284 285 286 286 286 287 288 288 288 286 285 284 283 283 283 283 283 283 283 282 282 282 279 278 279 279 279 279 280 280 279 278 278 278 278 278 278
277 277 278 278 278 278 278 279 279 279 279 279 280 280 280 280 280 279 279 279 279 279 279 279 279 279 279 278 278 279 279 280 283 285 286 286 285 283 282 282 282 282 282 282 282 282 282 283 283 284 285 285 285 287 288 288 288 288 289 288 287 285 283 283 283 283 282 282 283 283 282 281 280 280 280 280 280 279 279 279 278 278 277 276 275
276 277 277 277 277 278 278 278 278 278 278 278 279 279 279 279 278 278 278 278 279 279 278 278 279 279 279 278 278 278 279 282 284 285 285 286 286 283 282 282 282 281 282 282 282 282 281 282 282 283 284 284 284 284 285 287 288 288 288 288 289 289 288 285 283 283 283 282 282 283 283 282 282 281 280 280 279 279 279 279 278 278 278 277 278
276 276 276 276 276 276 277 277 277 277 277 277 277 277 277 277 277 277 277 278 278 277 277 278 277 278 278 277 277 278 278 282 283 284 284 285 285 284 282 282 281 281 281 281 281 281 280 281 281 282 283 285 285 284 283 284 286 287 288 288 288 289 289 290 290 286 285 284 283 283 283 283 283 282 281 280 280 279 279 278 278 279 279 279 279
275 275 275 275 275 275 275 275 275 275 275 275 275 274 274 274 275 276 276 276 276 275 276 276 276 276 276 276 277 277 277 280 282 283 283 283 284 284 282 281 281 281 281 281 281 280 280 280 280 281 282 283 283 283 283 283 283 283 283 284 284 285 287 289 289 289 288 286 284 283 284 285 283 284 282 282 280 279 279 278 279 278 279 279 281
274 274 274 274 274 273 273 273 273 273 273 272 272 272 272 273 273 273 273 273 273 273 273 273 274 274 274 275 275 275 276 279 280 281 282 283 284 284 281 281 281 281 281 281 281 281 281 281 281 281 281 282 282 283 283 283 282 282 282 282 283 283 284 285 285 286 287 287 286 285 285 286 285 285 282 282 282 282 281 280 280 280 280 281 281
272 272 272 272 272 272 272 271 270 270 270 270 269 270 270 270 269 270 270 270 270 270 270 271 271 271 271 272 272 272 273 277 278 279 281 282 283 280 279 279 279 279 279 280 280 281 281 281 281 281 281 281 283 286 286 284 282 281 281 282 282 282 283 285 287 288 287 287 287 287 286 286 287 286 284 282 282 282 282 281 280 279 279 278 278
270 271 270 271 271 270 270 268 268 267 268 267 267 266 266 266 266 267 266 266 267 267 267 268 269 269 269 269 270 270 271 274 276 277 279 280 280 277 277 278 278 278 278 279 280 280 281 281 281 280 281 280 283 286 287 287 283 282 281 281 282 282 282 283 287 288 289 289 289 290 290 290 291 291 290 288 284 283 281 279 278 279 277 276 277
269 269 269 268 268 268 267 266 266 265 265 264 264 264 264 264 264 265 264 264 264 265 265 265 266 266 267 267 268 268 269 271 275 276 277 278 278 275 276 276 276 277 277 278 279 280 280 282 282 280 280 280 284 285 286 285 283 282 281 281 281 281 281 283 284 284 288 289 289 289 289 290 290 291 291 290 288 286 281 278 280 280 277 277 276
267 267 266 266 266 266 265 264 264 263 262 262 262 262 262 262 263 263 263 263 263 263 263 263 263 264 265 266 267 266 266 268 272 273 275 276 274 273 274 274 275 276 276 276 278 278 278 280 281 282 281 282 284 285 286 285 283 282 281 281 280 280 281 283 282 282 283 283 284 285 286 287 287 287 287 289 289 287 282 282 282 280 278 278 278
266 265 265 265 264 264 263 263 262 262 261 261 261 261 262 262 261 261 261 261 261 262 262 262 261 262 263 263 264 264 264 265 267 272 274 275 275 273 273 273 273 274 275 276 276 277 278 278 279 282 283 284 285 285 285 285 284 282 282 281 280 280 282 283 282 282 282 283 283 283 283 284 285 285 285 286 286 286 283 282 282 281 280 279 279
264 264 264 263 262 262 262 261 261 261 261 261 261 261 261 261 261 260 260 260 260 260 260 260 261 261 262 263 263 264 265 265 266 272 273 274 275 274 271 272 273 274 274 275 275 275 276 277 277 280 282 282 283 283 284 285 286 284 283 281 281 283 285 282 282 284 282 282 282 282 283 283 283 284 284 284 285 285 284 283 282 282 281 280 279
263 262 262 261 261 260 260 260 260 260 260 260 259 259 260 260 260 259 259 259 259 259 259 260 260 260 261 262 263 263 265 267 265 269 271 272 273 274 271 270 272 272 272 273 274 275 276 276 276 278 280 281 281 283 284 285 285 285 284 287 287 287 285 284 282 281 281 281 281 281 281 281 282 282 283 283 284 284 284 284 283 282 282 282 281
262 261 261 260 260 259 259 259 259 260 259 259 259 258 259 258 258 259 258 258 258 258 258 259 259 259 260 261 262 263 264 264 268 266 270 272 272 273 274 273 274 272 271 270 271 273 275 276 277 279 280 281 282 283 284 284 284 283 286 287 288 288 287 284 283 281 281 281 281 280 280 281 280 281 281 282 283 283 284 284 283 282 282 282 282
260 259 259 259 259 259 259 259 259 259 259 259 258 257 257 257 258 258 258 258 258 258 258 258 259 258 259 259 260 262 263 263 266 269 268 271 272 273 273 273 274 270 270 270 271 272 272 273 274 277 279 280 281 282 283 283 282 284 285 286 287 287 286 284 283 282 281 281 280 280 280 280 281 280 281 282 282 283 283 283 283 282 281 281 281
258 258 258 258 258 258 258 258 258 258 258 258 257 257 257 257 257 257 258 257 257 257 257 258 258 258 258 258 259 260 261 262 262 265 269 270 271 272 272 273 273 273 269 269 269 269 272 275 277 277 278 279 280 280 280 281 283 284 284 285 285 284 284 284 283 283 282 280 280 280 280 281 281 281 282 282 282 282 282 281 281 280 278 277 276
258 258 258 258 258 258 258 258 258 258 258 258 258 258 258 258 257 257 257 257 257 257 257 257 257 257 257 258 259 259 260 261 261 262 265 266 267 269 271 272 272 272 272 270 273 274 275 275 276 276 276 276 276 277 277 278 280 282 283 284 282 282 283 283 283 283 282 281 280 280 280 281 281 281 282 281 280 280 280 279 277 274 275 274 274
257 257 257 258 258 258 257 257 258 258 258 258 258 258 258 258 257 257 257 256 256 256 257 257 257 257 258 258 259 260 260 261 261 262 263 263 263 264 265 266 269 271 268 267 269 268 270 271 271 274 275 276 276 276 276 278 279 279 279 281 281 282 283 283 283 283 282 282 281 281 281 281 281 280 279 279 279 279 280 277 277 275 274 274 274
257 257 257 257 258 258 257 259 258 258 258 258 258 258 258 257 256 256 256 256 256 256 257 258 258 259 259 260 261 261 262 262 263 263 264 264 264 265 265 266 265 265 266 267 267 268 269 271 272 271 271 271 272 273 274 276 278 279 278 280 281 281 283 284 284 283 283 283 282 282 281 280 279 279 279 278 278 279 278 277 276 274 273 274 273
257 257 257 257 257 258 258 258 258 258 258 258 258 258 257 257 257 258 259 260 260 260 260 262 263 263 263 263 263 263 263 264 265 269 268 270 269 268 268 268 268 268 270 272 270 270 270 270 269 270 270 271 272 272 273 274 276 279 280 280 280 280 280 281 281 282 282 282 281 280 279 279 278 278 278 277 277 278 277 276 276 274 273 274 273
257 257 257 257 257 258 258 258 258 258 258 257 257 258 261 264 263 261 261 265 268 269 269 264 265 265 265 265 265 264 264 265 271 273 272 272 273 273 273 273 273 272 273 275 273 270 269 269 269 269 269 270 270 271 272 273 274 276 278 280 280 279 280 280 281 282 282 282 281 280 279 278 277 277 277 276 277 276 276 276 274 274 272 272 272
257 257 257 257 258 258 258 257 258 258 258 258 257 257 257 259 264 266 267 267 268 269 270 270 270 270 267 265 267 271 272 272 272 272 272 272 273 273 273 273 274 274 274 271 269 269 268 268 268 269 269 270 270 270 271 271 272 273 275 278 279 279 280 280 281 282 282 281 281 280 279 278 277 277 276 276 275 275 274 275 274 273 272 272 272
257 257 257 257 258 258 258 258 258 257 258 258 257 257 256 256 257 263 266 267 268 268 269 270 270 270 271 269 267 266 269 271 272 272 272 272 273 273 273 273 274 274 274 274 269 268 268 267 267 268 269 269 270 271 271 271 272 272 273 275 277 279 279 280 281 281 281 281 280 279 279 278 277 276 276 275 274 273 273 272 272 272 272 272 272
257 257 257 257 257 258 258 257 257 257 257 257 256 257 256 256 255 256 259 265 267 268 268 269 269 270 270 271 271 270 270 271 272 272 272 272 272 273 274 274 274 274 274 270 268 267 267 267 267 267 268 268 269 270 270 271 271 271 272 273 275 278 279 280 281 281 280 280 280 279 278 277 277 276 275 274 273 272 272 271 271 271 271 271 271
257 257 257 257 257 257 257 257 257 257 257 257 256 256 256 256 256 257 257 257 259 263 266 267 268 269 269 270 270 271 271 271 271 272 272 272 273 273 273 270 273 274 272 268 267 266 267 266 267 267 267 268 269 270 270 271 272 272 272 273 274 276 278 279 279 279 279 280 280 279 278 277 276 275 274 273 273 272 271 270 270 270 270 270 270
256 257 258 258 257 257 257 257 257 256 257 256 256 257 257 257 258 257 257 257 257 257 258 260 264 268 266 267 269 271 271 271 271 272 272 272 272 273 273 268 266 266 266 266 267 267 266 267 267 267 267 267 268 269 269 270 271 272 272 273 274 276 277 278 278 279 279 279 279 278 277 276 275 275 274 272 271 270 270 270 269 270 270 270 270
256 256 257 257 257 257 257 256 257 256 256 257 257 258 258 258 257 257 258 258 258 258 258 259 260 265 268 269 269 269 270 271 271 272 272 272 272 272 266 265 265 264 265 266 266 267 267 268 268 268 269 269 269 269 269 270 271 272 273 273 274 275 276 277 278 278 278 278 277 277 276 275 275 274 273 272 271 271 270 269 269 269 270 269 269
256 256 256 256 256 257 257 257 256 257 258 258 258 258 258 258 258 258 258 258 258 258 259 259 260 260 264 262 263 267 269 270 270 271 271 272 272 268 265 265 264 265 265 266 266 267 267 268 269 269 270 270 269 269 269 270 271 272 273 273 274 275 276 276 277 277 277 277 277 276 275 274 274 273 273 271 271 270 270 269 269 269 269 269 269
256 256 256 256 257 257 257 257 257 258 257 257 257 257 257 257 258 258 258 258 259 259 259 259 260 259 259 260 263 262 263 267 269 269 269 269 266 265 265 265 266 265 265 266 267 267 267 269 270 270 271 271 270 270 270 270 271 272 273 273 274 275 277 277 277 277 276 276 276 275 274 274 273 273 272 271 270 269 269 269 268 268 268 269 269
256 257 257 257 258 257 257 256 256 256 256 257 257 257 257 257 257 258 258 258 258 258 259 259 259 259 259 260 261 262 263 263 263 264 265 265 265 265 265 265 265 266 267 267 268 268 269 269 269 270 271 272 272 271 271 271 272 273 273 274 274 275 276 276 276 277 276 276 275 274 274 273 273 272 272 271 270 269 269 268 268 268 267 267 268
255 255 255 257 256 256 257 256 256 256 256 256 256 257 257 257 257 257 258 258 258 258 259 259 259 259 260 261 262 264 264 264 264 264 264 264 264 265 265 265 265 265 265 265 266 266 267 268 269 270 271 272 272 272 272 272 272 273 274 274 275 275 275 275 275 276 275 275 274 273 273 272 271 271 271 270 269 269 268 268 268 268 268 268 268
254 254 255 256 256 256 256 256 255 255 256 256 256 256 256 257 258 258 257 257 258 258 258 259 259 260 261 263 267 267 263 262 262 262 262 262 263 263 263 263 263 263 263 263 264 265 266 267 268 269 270 272 273 273 273 273 274 274 274 275 275 274 273 272 274 275 275 274 273 272 271 271 270 270 269 269 270 269 268 268 268 268 268 268 267
254 254 254 254 255 255 254 255 255 256 256 256 256 256 257 257 257 257 257 257 258 258 258 259 259 260 262 266 265 266 262 261 261 260 260 261 261 261 262 262 262 262 262 262 263 264 264 264 266 269 271 272 274 275 274 274 274 274 273 272 273 272 273 273 273 273 273 272 271 270 270 270 269 269 269 270 268 268 267 267 267 267 267 267 267
254 254 254 254 254 254 254 254 255 254 255 255 255 257 257 256 256 256 256 257 257 258 258 258 258 259 259 263 262 263 260 259 260 259 259 260 260 260 261 260 260 260 261 262 263 263 263 263 265 268 268 268 269 271 273 273 272 272 272 271 271 271 271 271 271 270 270 270 269 269 269 269 269 268 268 268 267 267 267 267 267 267 266 266 266
254 254 254 254 254 254 254 254 254 255 255 256 256 256 256 255 255 255 256 256 257 257 257 258 258 258 258 259 259 259 258 258 258 258 259 259 259 259 259 259 259 260 260 261 261 262 262 263 264 266 267 268 268 269 269 270 270 269 268 268 268 268 268 269 269 269 269 268 268 267 268 268 268 268 267 267 267 266 266 266 266 266 266 266 266
252 253 253 253 253 253 253 254 254 254 255 254 254 254 255 254 254 255 256 255 256 257 257 257 257 257 257 257 258 258 258 258 259 258 258 258 258 258 258 258 259 259 259 260 260 261 261 262 263 264 265 266 267 267 267 268 268 269 269 269 269 268 268 268 268 268 268 268 267 267 267 267 267 267 266 266 266 266 265 265 266 266 266 266 265
252 252 252 253 253 253 253 253 254 253 253 253 253 253 253 254 254 255 255 255 256 256 256 257 257 257 257 257 258 258 258 258 258 258 258 258 258 258 258 258 259 259 259 259 260 260 260 261 261 261 262 263 264 265 266 266 267 267 268 268 267 267 267 268 268 268 267 267 267 267 267 267 266 266 266 266 266 266 265 266 266 266 265 265 265
251 251 252 252 252 253 253 253 253 253 253 253 253 253 253 253 254 255 255 255 256 256 256 256 257 257 257 257 257 257 258 258 257 257 257 258 258 258 258 258 258 259 259 259 260 260 260 260 260 261 261 262 262 263 264 265 266 266 267 267 267 267 267 267 267 267 267 267 267 267 267 266 266 266 266 266 266 266 265 265 265 265 265 265 265
251 251 251 252 252 252 252 252 252 253 252 252 253 253 253 254 254 254 254 255 255 256 256 256 256 257 257 257 258 258 258 258 258 258 257 257 258 258 258 258 258 259 259 259 260 260 260 260 261 261 261 261 262 262 263 264 264 265 266 266 266 267 266 266 267 267 267 267 267 267 266 266 266 266 266 266 265 265 265 265 265 265 265 265 265
250 251 251 251 251 251 251 251 252 251 251 252 252 252 253 253 253 253 254 254 255 255 256 256 256 256 256 257 257 257 258 258 257 257 257 257 257 258 258 258 258 259 259 259 260 260 261 261 262 262 262 262 263 263 263 264 264 264 265 265 266 267 267 267 266 266 267 267 267 266 266 266 266 265 265 265 265 265 265 265 265 265 265 265 265
250 250 250 251 251 251 251 251 250 250 251 251 251 252 252 252 252 253 254 254 254 255 255 255 256 256 256 256 256 257 257 257 257 257 257 257 257 257 258 258 258 258 259 259 260 261 261 262 263 263 263 263 264 264 264 264 265 265 265 266 266 267 267 267 267 267 267 266 266 266 266 265 265 265 265 265 265 265 264 264 264 264 264 264 264
250 250 250 250 250 250 250 249 250 250 250 251 251 251 252 252 252 253 253 253 254 254 254 254 255 255 256 256 256 256 256 256 257 257 256 256 256 257 257 257 257 258 258 259 260 260 261 262 262 263 264 264 265 265 265 266 266 266 266 266 266 266 266 266 266 267 267 266 266 266 265 265 265 264 264 264 264 264 264 264 264 264 264 263 263
Wind_Speed
2 3 2 3 3 3 4 4 5 4 5 6 6 7 7 7 6 4 4 4 3 6 6 7 7 6 7 7 6 7 7 8 6 6 6 7 7 6 7 7 8 8 7 9 7 6 8 8 9 8 6 8 8 7 8 7 8 8 8 8 9 9 10 12 15 16 6 5 5 8 8 8 9 12 12 11 9 11 13 11 10 11 12 12 13
1 2 3 2 2 3 3 2 2 3 2 3 3 4 4 5 6 7 8 8 6 7 6 5 5 7 6 7 6 6 7 7 7 6 6 6 7 6 6 7 8 8 7 8 8 7 7 9 10 8 7 9 9 9 8 8 8 9 9 8 9 9 8 10 13 13 14 4 6 2 5 9 11 10 15 14 13 10 13 12 10 12 12 11 11
2 2 2 3 3 3 3 3 3 4 3 5 4 5 4 4 4 3 5 6 6 6 7 8 8 6 5 5 5 5 6 7 7 7 8 7 7 7 7 7 8 8 8 9 9 8 8 8 9 8 6 8 9 8 8 9 8 9 11 8 10 10 8 10 10 12 13 9 7 7 8 9 13 13 14 13 13 13 14 13 12 11 11 11 11
3 2 3 3 4 3 3 3 3 4 4 5 4 5 5 4 4 4 5 4 6 7 6 8 8 9 10 10 8 6 5 5 6 6 7 8 8 9 8 8 8 8 9 9 9 8 9 10 9 8 8 10 10 8 9 8 9 9 10 10 9 11 8 7 10 11 9 10 7 10 8 9 10 6 9 9 10 10 12 11 8 8 9 9 11
3 4 3 4 4 4 4 4 4 4 5 4 5 5 5 5 4 5 5 5 6 6 6 5 7 7 8 9 10 10 10 9 8 7 6 6 7 8 8 8 8 9 9 9 9 9 9 10 10 7 8 10 10 9 8 10 10 9 11 10 9 9 7 8 10 9 10 11 7 6 5 8 6 6 9 12 9 8 7 10 11 12 11 8 7
4 3 3 3 3 3 4 4 4 5 5 5 6 7 7 6 6 5 5 7 6 6 7 7 6 8 7 7 7 9 9 9 10 10 9 9 7 8 8 8 8 9 9 8 8 8 9 10 10 9 9 10 11 10 9 10 10 11 11 10 9 8 9 9 9 10 11 13 10 6 6 8 6 6 9 11 11 10 8 8 5 7 8 8 9
1 1 1 1 2 3 3 4 4 4 4 5 5 5 6 7 7 8 7 7 8 8 7 8 7 7 8 7 8 9 9 8 9 11 11 10 10 10 9 8 9 8 8 9 9 8 9 9 10 9 10 10 11 11 10 10 10 11 11 11 10 9 11 10 10 11 12 13 11 8 9 8 9 11 8 11 11 13 15 13 10 8 8 11 11
3 4 4 5 5 6 4 4 4 5 5 5 5 6 6 6 7 7 7 7 8 8 9 9 9 7 8 8 9 8 8 9 9 10 10 10 10 11 10 11 11 9 9 9 9 9 9 9 10 10 10 11 11 11 10 11 10 11 10 9 9 10 11 10 10 11 12 12 13 10 8 8 8 4 2 7 10 9 9 10 15 13 13 12 13
3 3 4 5 6 6 8 8 8 9 8 8 7 7 6 6 6 6 6 7 7 8 8 8 9 9 8 9 10 9 9 10 8 8 9 10 9 10 11 12 12 12 11 10 10 10 9 9 10 10 12 14 17 15 14 12 10 10 11 8 9 11 11 10 10 10 11 12 12 10 7 9 10 11 9 12 17 19 12 9 11 11 10 10 12
5 5 5 5 6 6 7 8 9 11 13 13 13 12 11 10 10 10 10 9 8 8 7 8 7 8 8 8 8 8 10 9 13 19 16 12 11 10 11 12 11 11 12 12 12 11 10 10 10 15 17 18 18 18 19 19 19 15 12 9 10 10 11 11 11 11 11 12 13 12 9 11 12 14 14 15 12 6 9 13 14 10 9 11 9
5 5 6 5 6 6 7 8 9 10 11 11 12 13 14 12 12 12 12 11 12 11 10 11 11 10 10 11 11 10 9 10 16 19 22 24 17 13 13 12 12 12 12 13 13 13 12 10 10 12 14 15 15 19 19 20 20 21 22 21 16 13 11 13 13 11 11 12 12 12 13 15 15 12 14 11 10 13 14 14 12 10 13 14 15
5 5 5 5 6 8 8 9 10 10 9 10 10 10 11 12 13 13 13 13 12 10 11 11 12 11 11 12 13 13 12 13 21 22 23 24 21 15 13 12 12 12 12 12 12 12 13 12 11 9 10 11 12 11 14 18 20 21 22 22 22 23 22 16 13 12 12 13 13 14 13 16 15 11 11 10 11 11 10 10 13 16 16 15 14
6 7 7 6 6 7 7 8 9 9 9 9 9 9 10 11 13 13 14 13 13 13 13 13 13 13 12 13 14 14 14 16 24 26 26 26 27 22 13 14 14 14 14 14 13 13 12 12 12 11 10 16 14 12 11 12 16 21 21 22 22 23 24 26 24 18 12 14 15 16 16 15 15 12 12 14 9 13 12 13 14 13 13 15 15
7 7 7 6 6 6 7 7 9 9 8 8 9 11 12 12 12 11 12 13 14 15 15 15 14 13 12 13 14 14 16 18 27 28 28 29 28 24 15 15 15 15 15 15 14 14 14 13 12 12 11 12 11 12 11 12 11 12 12 13 13 16 21 25 25 26 22 17 16 18 17 14 15 10 8 12 14 15 14 15 13 13 13 17 13
7 7 8 8 7 7 8 8 8 8 9 9 11 11 11 12 12 11 11 12 13 14 13 15 14 15 13 13 12 15 14 26 29 30 30 30 30 26 16 15 15 15 16 15 16 15 15 14 14 14 13 13 11 12 12 12 12 11 12 12 13 13 13 14 16 15 15 15 17 19 19 15 14 14 7 13 17 16 16 17 17 16 15 13 8
7 7 8 8 8 8 8 9 10 10 10 11 11 11 11 11 12 11 12 12 12 13 14 14 15 17 16 16 14 18 18 30 31 31 32 30 31 19 15 15 15 16 16 16 16 15 14 15 14 15 15 15 13 19 18 13 12 13 14 13 13 13 13 14 19 18 16 15 15 17 17 16 15 14 10 12 12 12 10 9 8 9 11 11 15
8 8 8 7 8 8 9 9 11 11 11 11 11 11 11 12 11 10 12 13 12 12 12 13 13 14 17 16 16 15 18 26 31 32 32 34 26 16 15 14 14 15 16 16 16 16 15 15 14 14 14 15 15 20 21 21 14 15 14 15 14 13 13 13 18 22 23 24 24 26 27 25 23 23 19 17 14 11 10 10 14 13 13 14 14
7 7 7 7 9 9 9 9 11 11 11 11 12 12 10 9 10 9 11 13 13 12 11 13 13 14 14 16 13 16 16 24 32 31 32 31 27 18 15 13 15 14 15 15 14 14 16 22 20 17 16 17 18 23 23 19 15 15 15 15 16 14 14 13 10 12 20 24 25 27 28 27 25 24 26 21 20 16 14 18 16 12 14 14 17
6 7 9 9 9 8 8 9 10 11 12 12 11 12 12 11 11 9 11 10 13 11 12 12 13 12 11 13 24 22 18 22 30 30 32 30 24 16 14 13 15 14 14 14 15 13 15 17 24 22 19 19 25 26 27 21 15 15 16 15 16 15 15 14 13 11 10 11 14 16 17 20 18 16 17 23 23 19 18 18 13 14 16 17 15
6 7 8 8 7 8 8 9 10 10 12 13 12 11 11 11 11 11 12 10 12 11 13 12 16 14 11 12 14 15 17 17 21 30 29 29 28 18 13 12 14 15 15 13 13 13 14 15 16 24 29 30 30 32 32 31 21 16 15 15 15 17 13 15 13 11 11 13 13 13 13 13 12 12 13 14 16 19 19 17 15 15 17 17 14
7 7 8 8 8 8 8 8 11 11 10 11 12 11 9 12 12 11 11 12 11 12 14 13 13 14 11 12 12 12 11 16 18 27 27 27 28 24 14 14 13 13 13 16 14 16 15 14 14 22 30 32 32 34 34 34 31 20 17 16 16 16 15 13 12 16 12 12 11 11 11 10 10 10 11 12 13 14 15 17 16 16 16 16 15
7 7 7 8 8 8 8 9 9 10 10 10 12 12 9 11 11 12 10 11 13 14 13 13 13 14 11 11 11 13 14 22 18 23 27 28 27 28 17 15 17 16 16 15 14 14 15 15 15 22 33 35 35 34 34 31 35 21 17 19 22 23 19 15 10 8 9 10 10 10 10 10 10 10 11 12 12 14 14 14 15 16 15 15 16
7 7 8 9 9 9 9 9 10 9 10 10 12 13 12 11 12 11 12 13 13 14 12 12 12 13 11 10 8 11 11 12 23 21 25 27 27 26 27 22 26 18 15 17 17 16 15 15 15 24 30 33 32 32 32 34 31 21 27 29 25 25 23 14 11 9 10 10 10 11 11 11 11 12 12 12 12 13 12 12 12 14 13 13 13
7 8 8 9 9 9 9 9 9 9 10 11 11 11 12 10 11 9 11 11 12 11 11 10 12 11 13 10 9 9 10 10 16 25 23 28 27 28 28 29 28 19 17 17 17 17 16 15 17 29 32 32 33 33 34 33 24 29 32 34 29 25 16 13 12 11 11 11 11 11 12 12 12 11 12 12 12 11 10 10 9 9 11 10 10
7 9 9 9 9 9 9 9 10 9 9 9 11 10 11 10 11 9 10 10 11 11 11 11 11 11 11 12 11 10 10 11 12 17 27 27 29 29 29 30 28 28 19 16 17 17 23 33 35 33 32 35 38 38 33 32 35 35 37 32 26 16 15 13 12 12 12 13 12 13 13 12 13 13 10 8 7 7 8 8 7 5 2 2 3
9 10 10 9 10 10 11 10 9 9 9 8 9 9 10 11 10 11 10 10 11 11 11 11 10 11 11 11 11 12 11 11 11 12 15 19 20 26 30 30 29 29 28 23 29 33 33 32 34 33 30 26 21 18 17 18 26 31 32 30 17 15 14 13 12 13 13 12 13 13 13 12 10 9 8 7 7 9 9 9 7 5 6 6 5
10 10 10 10 10 9 10 10 10 9 8 9 8 9 9 9 9 10 10 11 10 11 12 12 12 12 11 12 12 12 10 10 11 11 10 12 12 14 16 16 22 25 19 16 18 17 21 21 19 25 26 34 33 29 27 28 25 22 19 16 15 15 14 13 13 13 12 12 12 12 12 10 6 7 8 9 10 9 8 9 9 9 7 6 8
10 11 12 10 9 9 10 9 10 10 9 9 10 10 9 9 9 10 11 10 11 11 11 11 12 13 12 12 12 11 11 9 9 10 11 11 12 12 12 12 12 11 13 14 15 16 16 19 22 16 15 15 16 14 14 15 18 18 17 16 15 14 15 17 16 12 11 11 10 10 9 7 9 10 9 9 10 9 8 9 10 9 8 8 7
10 10 10 9 10 9 9 9 10 10 10 9 9 9 10 10 11 11 12 9 10 12 12 12 12 11 11 11 12 12 11 12 10 17 19 23 20 15 11 10 9 10 14 22 19 15 14 14 13 14 13 13 12 12 12 15 17 16 16 15 12 11 11 11 13 13 12 11 12 11 11 9 9 9 9 9 10 9 8 9 9 10 8 10 12
9 10 9 9 9 9 9 9 9 10 10 10 11 11 14 22 16 14 13 21 28 29 25 17 16 14 13 11 10 14 13 14 27 33 29 28 29 30 28 29 28 23 26 32 23 16 12 12 13 11 12 10 11 12 12 13 14 14 12 14 14 11 11 12 12 13 12 12 11 11 10 10 10 9 10 11 9 8 10 12 10 9 10 11 11
9 9 9 9 10 11 10 10 10 9 10 10 10 11 12 14 23 25 24 26 26 28 28 30 31 29 21 15 16 28 31 32 31 30 31 29 30 30 30 30 30 30 30 22 15 11 10 11 11 11 11 11 11 10 11 12 14 13 13 12 13 14 15 13 12 11 11 11 11 11 10 10 10 10 10 10 10 9 8 8 9 10 11 12 11
9 10 10 10 11 11 10 10 11 10 10 9 10 10 11 12 15 21 24 24 26 28 28 28 29 28 29 26 21 15 22 28 31 30 31 31 29 30 29 29 29 29 29 29 17 11 10 10 11 10 11 11 11 11 12 12 11 12 13 13 13 11 13 13 11 11 10 10 10 9 9 10 10 10 10 10 9 9 9 10 9 10 9 9 10
10 10 10 10 10 11 10 10 10 10 10 11 10 10 10 11 13 15 19 24 27 25 26 26 26 26 27 28 29 26 26 27 31 31 30 30 29 28 29 31 31 31 32 18 10 11 10 10 10 9 11 12 10 9 11 10 11 12 12 13 14 11 10 10 12 11 10 10 9 9 8 9 9 9 9 9 10 10 10 10 9 10 10 10 9
9 9 9 10 11 10 10 9 10 10 10 10 10 10 10 10 11 12 13 15 19 22 23 24 23 24 26 28 28 28 28 29 29 29 29 29 29 28 28 22 27 28 22 14 11 10 11 10 10 11 11 11 10 10 10 10 10 11 11 12 13 12 10 8 9 10 9 10 10 8 8 9 8 9 9 9 9 9 10 10 10 10 10 10 10
9 11 15 12 9 9 9 9 10 10 10 10 10 10 11 10 11 11 11 12 13 14 15 19 24 27 23 21 24 28 28 28 29 28 30 28 28 29 27 15 13 12 12 10 10 10 11 11 13 14 12 12 11 10 10 10 10 10 11 11 11 11 10 8 9 10 10 9 9 8 7 8 8 9 10 10 9 9 10 10 10 11 12 10 9
9 9 9 10 9 8 9 9 9 10 10 10 10 10 11 11 11 11 11 11 12 12 13 13 13 18 30 28 28 26 28 29 29 29 27 28 27 27 13 10 11 10 11 11 11 12 12 12 13 11 12 11 12 11 11 10 10 10 11 11 11 11 11 10 8 9 10 9 8 9 8 8 9 9 9 9 13 13 12 12 11 10 11 10 10
8 9 9 8 9 9 9 10 9 10 11 11 11 10 10 10 10 10 11 11 11 11 12 12 12 13 17 12 14 23 28 28 29 30 29 26 27 16 9 10 10 11 11 12 12 12 12 12 12 12 12 13 11 10 10 10 10 10 10 12 12 12 10 8 8 7 8 8 8 9 9 9 9 10 11 11 10 9 9 10 9 10 10 11 10
8 8 8 9 10 11 10 9 10 14 11 9 9 9 10 10 10 10 11 11 12 12 13 12 11 12 12 13 14 11 16 24 27 23 21 20 14 9 9 9 9 10 10 11 11 12 13 14 11 11 11 11 12 11 10 9 10 9 9 10 12 11 14 10 10 9 8 8 8 8 9 9 10 10 10 10 10 9 9 9 9 9 8 10 10
7 12 17 19 14 10 9 10 10 10 10 9 9 9 10 10 10 10 10 11 12 12 12 12 11 11 11 11 12 13 15 12 10 10 11 12 12 10 10 9 9 9 11 10 12 14 13 14 15 14 13 11 11 10 10 10 10 10 10 10 12 11 13 10 8 8 9 9 8 8 9 9 9 9 9 9 9 9 10 10 10 10 11 11 10
9 8 10 16 10 11 10 10 10 10 10 10 10 9 10 10 10 10 10 11 12 12 11 12 12 11 12 12 12 12 12 11 9 9 9 10 10 11 10 10 11 12 13 14 13 12 14 12 12 13 14 12 10 10 9 9 10 10 10 10 10 11 11 8 8 8 9 8 8 8 9 9 8 8 8 8 9 10 11 11 11 11 11 10 10
7 8 9 11 12 11 10 9 8 9 9 9 9 9 9 10 10 10 10 11 11 11 11 11 11 11 12 18 27 24 13 11 11 10 11 12 11 12 12 11 11 12 13 13 14 13 12 13 13 13 11 12 10 9 9 9 9 9 10 11 10 8 7 7 8 8 9 8 8 8 7 8 8 9 9 8 8 9 9 9 9 8 8 8 8
8 8 8 8 10 9 9 9 9 10 9 9 8 8 9 9 9 9 10 10 11 11 11 11 10 11 17 29 25 27 15 9 11 11 12 11 11 11 11 10 10 10 11 10 11 14 14 15 15 13 13 10 9 8 8 8 8 8 7 7 9 9 9 9 8 7 7 7 7 7 8 8 9 8 9 9 9 8 8 8 8 8 8 9 8
8 8 8 9 8 8 9 9 9 9 8 8 8 9 10 10 9 10 10 10 10 11 11 11 11 11 13 20 22 23 11 9 10 11 10 11 10 10 9 10 10 11 11 11 11 12 12 13 13 12 10 9 10 9 6 4 2 1 3 5 4 4 4 4 4 5 5 5 6 6 7 7 7 6 7 7 7 8 8 9 9 8 8 9 9
7 8 8 8 8 8 8 8 8 8 7 10 11 10 10 9 8 9 9 9 10 10 10 10 10 12 11 14 14 11 9 10 9 9 10 11 10 10 9 10 10 11 10 10 11 11 11 12 12 11 10 10 10 10 9 7 6 5 5 1 1 2 3 4 6 6 7 7 7 7 6 6 6 7 7 8 8 9 8 8 9 9 9 8 9
6 7 7 8 7 7 7 7 7 8 9 9 7 7 8 7 8 9 9 9 10 9 9 10 10 10 11 10 10 10 10 9 11 11 9 9 10 10 9 10 10 10 9 9 10 11 12 12 12 12 12 11 11 10 9 8 8 7 6 5 4 3 3 2 3 4 5 7 7 7 7 7 7 7 7 7 8 9 9 9 9 9 9 9 9
6 6 7 7 8 8 8 7 8 7 7 8 8 8 8 8 7 8 9 9 9 9 9 9 9 10 10 9 9 10 9 9 9 9 9 9 9 9 9 9 10 10 9 10 10 10 10 10 11 11 11 11 11 9 9 9 8 8 7 6 6 5 5 5 5 5 5 5 6 6 7 7 6 6 7 8 7 7 8 8 8 8 9 9 9
6 6 6 7 7 8 8 8 7 7 7 7 7 8 8 8 8 9 9 10 10 10 9 9 9 9 9 9 9 9 9 9 9 9 9 9 9 9 9 9 9 9 9 9 10 10 10 9 8 8 8 9 8 10 10 8 7 6 6 6 6 7 6 6 6 6 6 5 5 6 6 7 7 7 8 7 7 7 7 8 8 9 8 8 8
5 6 6 7 6 6 6 6 7 8 7 7 7 8 8 8 8 9 8 9 9 9 9 8 9 9 9 9 9 9 9 9 8 9 8 8 9 9 9 10 10 9 9 10 10 10 10 10 11 10 10 9 9 9 9 8 8 8 7 7 6 7 8 8 7 7 6 6 6 6 6 6 6 6 6 7 7 7 8 7 7 6 7 7 7
5 5 6 6 6 6 7 7 8 7 7 7 7 7 8 7 8 7 8 8 8 8 8 8 8 9 9 9 9 9 9 9 9 9 9 9 9 9 9 9 10 10 9 10 10 11 10 10 10 9 9 9 9 9 9 9 9 8 8 7 10 14 13 12 8 7 8 7 7 7 7 7 7 7 7 7 7 6 7 7 7 7 7 7 7
5 5 5 6 6 6 6 6 6 6 7 6 6 7 7 7 7 8 8 8 8 8 8 8 8 8 8 9 10 10 9 9 10 9 9 9 9 9 10 10 10 10 10 10 10 10 10 10 10 9 9 9 9 9 9 9 9 9 8 10 16 16 14 15 14 13 9 7 7 7 7 8 8 7 7 7 7 8 8 7 7 7 7 7 6
6 5 5 5 5 5 6 6 6 6 6 6 6 6 7 7 7 7 7 8 8 8 8 8 8 8 8 8 8 8 9 9 8 8 9 9 9 10 10 10 11 11 10 10 10 10 10 10 10 10 9 9 9 9 8 8 8 9 12 17 18 17 15 13 10 13 15 11 8 8 8 9 9 9 8 8 8 8 8 8 7 7 6 6 6
Wind_Direction
346 320 324 319 344 336 335 349 350 348 350 353 354 344 347 346 353 352 336 347 335 332 328 323 318 317 320 325 330 329 330 327 325 321 316 308 299 286 286 282 276 274 273 275 268 261 259 258 258 256 253 255 256 250 248 241 237 236 231 228 234 227 225 236 244 254 236 233 195 206 194 172 196 199 200 202 196 204 204 203 190 194 200 204 207
298 315 311 302 300 281 268 279 277 290 303 296 304 311 315 323 332 348 348 336 350 334 324 310 299 301 309 311 318 322 322 323 322 324 313 307 300 294 286 280 275 272 270 271 271 264 256 258 262 259 251 251 255 254 248 248 239 240 237 226 233 232 213 227 244 248 249 191 229 207 175 192 200 194 196 193 203 197 203 201 200 198 200 202 204
275 289 292 301 294 292 292 294 296 301 305 299 296 301 298 301 305 316 316 315 321 322 319 320 316 307 294 285 286 301 305 309 312 316 314 307 297 292 286 280 275 274 270 264 264 264 264 257 257 256 256 256 254 249 248 248 244 243 246 231 237 237 220 219 234 246 245 238 203 199 199 192 200 194 201 205 202 194 198 199 200 201 203 200 204
259 279 299 303 293 310 294 274 277 275 277 276 273 276 278 279 282 277 275 278 287 290 300 306 313 315 319 318 316 304 286 276 282 289 295 298 300 297 293 283 275 270 270 272 267 261 259 264 258 250 250 255 256 251 246 242 245 247 250 246 241 244 230 219 226 242 240 239 218 205 200 187 220 212 204 201 191 192 201 205 204 207 206 204 205
220 258 262 270 291 296 291 291 286 294 290 295 281 277 272 272 272 265 268 269 264 270 275 276 283 289 296 304 309 312 311 308 299 286 271 268 274 278 279 281 280 275 269 266 266 263 262 258 262 252 246 252 256 252 248 244 244 244 248 247 245 245 240 225 233 230 241 237 234 217 203 220 225 202 189 184 188 196 202 202 201 203 205 207 208
214 219 218 213 241 246 254 264 264 258 269 281 286 290 292 295 292 280 268 276 275 267 271 274 270 276 273 275 281 288 294 298 297 294 292 288 275 264 263 266 269 271 275 270 263 257 259 261 260 254 248 248 254 251 246 246 245 245 247 247 244 243 241 239 235 239 238 244 232 218 209 204 210 202 193 189 183 190 203 210 198 202 194 201 211
222 216 235 226 257 265 261 261 254 252 253 255 262 265 266 269 275 278 283 280 281 283 277 277 272 265 271 274 276 277 276 277 283 287 289 287 285 283 279 268 260 261 263 265 264 259 254 257 259 254 251 248 251 251 248 248 243 246 244 246 242 241 242 240 235 237 241 246 241 213 211 213 202 204 201 196 201 196 191 185 205 205 200 204 207
324 333 341 339 335 322 305 276 268 267 267 266 260 255 255 250 246 249 248 254 257 259 265 270 275 274 275 277 276 274 273 274 272 271 273 278 282 283 281 280 278 270 262 258 259 258 255 253 253 251 247 248 247 249 244 250 249 250 245 240 240 239 242 241 237 237 240 242 242 231 208 203 216 242 101 179 202 226 219 194 197 192 202 206 205
322 347 351 340 328 325 327 328 323 318 312 305 301 294 282 270 267 266 260 257 253 247 249 252 262 267 267 269 277 278 277 274 271 265 267 269 267 270 274 275 275 276 274 268 258 255 256 253 253 252 249 248 246 245 244 240 244 252 248 238 239 241 242 242 237 236 239 240 244 235 202 207 211 198 186 193 201 208 191 181 213 209 199 200 216
19 0 351 333 324 324 321 319 320 319 319 317 315 312 308 305 303 301 299 293 287 283 275 270 263 263 269 269 265 269 272 274 274 272 266 265 268 268 266 264 265 267 272 274 271 261 253 253 252 250 252 252 252 251 250 248 245 244 248 239 233 239 240 243 239 235 237 239 239 236 220 221 214 208 206 210 207 186 172 195 208 197 182 216 229
0 350 336 325 321 321 323 316 312 309 304 307 307 309 310 310 310 308 307 305 302 298 293 290 289 286 285 285 283 275 270 269 265 267 271 272 273 272 268 266 262 262 262 265 270 272 269 260 256 254 253 254 253 252 250 250 249 249 248 244 237 233 237 240 240 236 237 240 241 236 233 233 225 209 213 207 198 198 199 195 199 183 193 194 215
347 331 322 326 330 326 313 307 304 301 305 303 305 306 310 312 313 313 311 310 307 303 298 292 290 291 290 289 287 285 283 273 275 277 277 276 274 271 270 270 267 263 259 257 258 262 268 271 266 259 250 246 247 249 249 248 248 249 249 248 244 240 236 234 238 239 234 242 243 239 237 238 233 206 208 200 203 204 210 197 199 197 199 208 213
343 338 333 329 315 308 306 304 305 307 309 310 309 313 313 313 312 313 312 312 311 306 299 298 295 293 290 289 287 286 284 282 284 285 285 283 282 280 274 271 271 269 267 264 263 261 257 256 263 261 256 250 247 246 245 247 248 248 249 249 247 244 243 242 240 239 238 240 242 244 236 241 241 222 199 202 180 201 198 206 209 214 214 214 217
337 320 315 315 314 312 310 310 306 307 313 318 319 315 313 308 307 307 308 309 306 304 303 300 298 295 293 292 291 290 286 286 287 288 287 286 285 284 279 277 274 271 270 268 267 265 261 259 257 255 254 252 245 244 242 243 244 246 248 247 246 246 245 245 245 243 240 240 241 247 244 236 243 239 199 181 185 202 199 211 205 212 215 223 226
318 316 314 316 320 317 313 310 311 316 318 316 312 307 304 305 306 309 310 307 306 305 305 305 301 299 295 294 291 289 286 288 290 290 290 290 289 288 285 282 279 277 275 271 267 264 262 260 257 256 255 252 247 240 241 240 241 241 242 244 243 242 242 241 241 241 240 239 243 247 251 243 243 244 197 195 199 202 199 201 201 205 216 231 245
308 310 309 314 317 320 324 322 320 319 316 313 309 308 310 311 312 315 311 303 299 299 294 297 295 297 297 295 293 290 289 291 291 293 293 292 292 290 286 282 280 277 274 273 270 267 264 260 258 257 255 256 249 243 241 240 241 240 241 242 244 242 242 238 239 238 236 237 240 246 248 246 239 241 214 198 206 204 200 206 204 207 213 219 227
308 310 310 318 325 331 332 325 320 318 317 315 313 311 311 309 306 308 299 294 292 292 292 293 293 294 296 297 296 294 293 294 295 295 294 294 294 292 289 284 278 275 272 272 270 268 265 261 258 259 259 260 254 250 246 243 242 240 241 242 243 243 245 244 242 241 240 237 238 241 247 249 245 241 230 192 200 186 187 193 208 196 203 216 230
305 311 321 330 329 329 329 325 319 318 317 313 310 307 305 298 294 301 296 298 295 293 297 296 291 290 290 293 294 296 295 298 300 301 298 297 296 295 295 292 287 282 279 275 274 271 267 264 261 261 261 261 258 254 249 244 245 242 242 241 243 243 245 245 244 238 238 240 240 240 241 244 247 245 241 220 196 179 188 206 207 191 207 211 221
320 329 326 326 325 326 324 320 315 312 308 305 305 302 301 299 298 299 293 291 291 293 293 290 288 287 291 296 300 299 299 300 301 302 300 299 297 292 288 281 281 275 276 275 273 272 272 270 267 263 259 259 257 256 254 247 245 241 242 240 241 241 241 239 237 235 232 233 238 241 243 241 241 241 240 235 211 198 201 211 200 196 206 215 217
331 325 319 318 319 314 313 309 304 302 301 299 297 294 297 298 297 297 294 289 289 290 292 288 290 290 295 293 291 291 293 292 296 300 300 299 298 295 287 285 282 283 282 281 280 271 266 266 265 266 267 268 267 265 261 254 247 242 239 240 238 242 237 238 234 228 231 230 235 235 239 237 234 232 237 235 228 212 212 213 209 202 210 216 210
320 315 313 308 305 303 300 298 298 296 292 293 294 293 293 293 295 293 291 292 287 288 289 288 286 287 292 289 286 285 285 293 298 303 304 305 305 304 296 288 283 279 276 273 265 268 267 264 265 269 271 271 270 268 266 262 254 243 238 240 236 239 237 240 232 223 227 233 234 235 236 236 233 228 229 233 230 225 218 215 214 211 210 214 213
309 306 303 300 298 296 295 292 288 290 293 293 293 290 287 285 287 290 287 288 289 287 288 289 288 288 288 285 287 290 293 298 301 305 305 304 304 302 298 293 292 289 286 278 274 268 263 260 255 259 263 265 266 267 266 264 259 251 241 236 236 237 240 242 228 219 222 228 231 231 233 231 232 226 227 227 229 228 226 220 217 217 215 216 214
302 299 298 296 296 294 293 291 292 293 291 290 288 290 292 290 287 287 287 287 285 286 287 286 288 291 292 288 286 291 294 296 301 302 304 304 304 302 300 299 297 295 293 290 289 286 287 285 278 275 273 272 272 270 268 264 262 255 252 245 237 235 239 241 231 218 223 225 227 230 229 229 228 228 224 226 225 224 227 226 221 219 221 223 224
296 296 294 293 294 294 293 293 290 288 289 290 288 287 291 287 286 285 285 286 290 290 291 290 291 292 295 295 290 289 289 288 296 299 300 300 301 300 300 299 298 295 292 287 289 288 288 288 291 291 288 285 280 274 268 262 257 257 254 251 246 243 240 239 230 224 223 224 224 227 230 228 229 229 227 222 223 220 223 226 225 221 222 222 224
298 296 294 294 294 293 294 292 292 290 286 287 292 293 290 291 292 288 287 288 287 289 290 292 291 292 291 293 292 287 286 285 283 288 290 293 295 295 295 293 292 291 289 288 286 289 288 290 291 290 287 282 279 277 277 277 271 260 253 248 246 246 244 236 230 222 223 221 221 225 230 230 226 228 230 225 219 214 214 221 219 205 152 120 83
300 297 297 297 298 299 299 296 289 285 286 287 287 287 289 295 293 294 291 288 290 290 289 290 287 288 285 284 283 281 280 277 276 277 280 283 282 282 284 285 286 286 285 283 285 287 287 284 284 287 289 289 289 290 282 271 266 267 263 255 249 245 240 235 227 225 223 220 220 222 228 230 227 225 220 206 204 210 203 201 178 163 163 158 132
299 300 301 303 300 299 299 301 300 298 301 298 290 286 290 288 288 289 289 288 286 285 287 287 286 282 278 280 278 279 271 270 274 273 272 274 270 270 273 272 274 278 280 277 276 278 282 284 282 282 282 285 288 289 289 283 271 260 256 253 247 242 237 231 227 225 222 220 222 222 228 226 212 202 203 200 209 209 197 189 190 188 168 173 176
301 303 304 304 302 303 300 292 296 306 303 299 298 296 291 288 286 285 286 285 286 283 282 281 281 282 282 284 283 281 281 276 272 276 275 270 269 268 264 262 261 252 263 268 265 269 272 276 280 279 279 279 282 282 278 279 266 252 247 242 237 231 231 230 230 228 224 222 223 223 220 204 202 206 201 202 207 203 187 187 190 182 177 162 169
299 298 299 302 301 300 297 300 304 303 301 295 288 287 291 291 286 279 271 263 270 279 282 285 286 287 285 290 296 294 291 290 286 294 293 296 298 297 291 285 274 269 264 273 275 268 264 268 265 271 271 277 283 282 284 284 280 260 243 234 228 226 227 226 229 226 221 218 219 214 213 201 206 201 199 201 205 196 179 186 188 176 179 184 193
302 300 302 301 301 302 302 303 304 301 297 299 299 294 287 295 293 293 292 293 295 296 297 296 297 298 298 293 290 296 298 297 303 305 305 304 301 298 296 296 296 294 293 293 292 290 285 282 282 280 279 279 276 275 279 284 289 278 259 247 242 235 229 228 225 226 221 218 216 212 208 200 203 199 195 203 201 190 183 182 185 176 177 189 196
302 301 305 304 305 306 305 304 303 299 296 297 297 298 301 301 300 298 297 298 299 300 301 301 302 303 303 302 302 302 303 305 306 304 303 302 300 299 299 298 297 295 295 294 289 280 278 273 275 275 275 272 270 270 276 279 280 286 278 257 243 235 229 225 222 221 221 217 214 210 204 200 200 195 195 197 194 183 181 186 180 180 188 190 192
301 303 304 303 306 305 303 302 302 299 298 297 299 300 300 302 303 303 304 304 304 303 303 304 305 307 307 307 307 305 305 305 305 304 303 302 303 302 302 301 299 298 298 299 297 291 282 276 272 274 273 269 268 274 275 277 282 285 289 281 257 239 235 228 220 217 220 221 216 209 201 198 197 194 193 192 183 181 179 180 181 188 191 194 193
297 301 303 304 302 302 302 303 301 301 302 303 302 302 301 301 303 306 310 308 306 304 305 306 308 309 311 312 312 309 308 308 308 309 310 311 312 311 308 306 307 307 307 305 296 290 280 278 274 265 265 268 263 257 263 265 267 272 273 280 275 253 236 232 229 226 219 220 218 211 200 197 195 190 187 182 178 182 182 183 183 183 184 186 191
301 300 302 301 302 302 304 303 303 301 298 298 296 297 295 293 293 296 304 311 317 317 313 311 311 314 314 314 314 313 312 313 313 312 311 311 310 309 307 307 309 307 305 301 295 285 283 275 273 269 266 264 264 258 251 251 253 260 265 266 269 264 246 227 229 224 219 221 221 209 198 197 189 184 183 182 184 177 177 182 177 177 186 188 185
303 299 298 300 296 298 299 301 301 298 297 297 297 295 294 294 296 298 299 302 304 305 308 313 316 316 316 315 314 315 315 314 313 313 313 313 312 311 314 315 311 307 304 289 285 278 276 277 273 271 266 264 261 256 253 246 247 252 258 262 262 260 249 231 224 223 220 215 213 208 194 191 188 186 180 174 172 178 184 180 184 186 182 181 181
305 302 302 302 301 298 299 298 296 294 295 293 293 293 295 297 298 295 294 293 293 292 296 299 298 303 309 312 313 313 314 315 316 315 314 314 313 316 314 304 298 293 290 286 280 280 276 274 272 266 264 255 254 250 249 249 246 247 252 257 260 257 251 236 217 214 217 210 205 202 192 188 188 183 180 179 182 184 182 182 183 185 183 181 178
306 304 302 303 301 302 303 298 291 291 296 298 297 296 294 294 291 293 293 294 293 293 294 296 301 301 307 305 304 313 314 316 316 315 314 314 316 316 293 289 283 287 282 285 285 283 281 275 270 269 267 263 249 243 244 245 246 240 240 243 251 251 238 217 204 200 208 206 199 190 187 191 182 182 177 183 188 186 182 178 178 179 181 178 170
298 299 299 305 308 308 305 301 300 303 300 294 293 293 296 297 298 299 300 299 301 303 305 302 301 303 304 306 309 304 305 307 307 309 312 319 321 308 298 287 283 282 284 282 284 278 278 279 276 278 274 265 256 242 237 238 239 239 238 240 241 242 241 237 224 206 204 204 200 188 188 188 186 185 183 184 180 175 173 172 170 173 175 176 174
299 305 309 311 312 311 307 306 304 305 303 302 298 301 303 305 307 307 307 308 309 308 304 305 304 305 304 305 308 301 300 301 300 302 312 312 310 309 302 297 291 290 293 296 300 305 300 297 291 284 275 269 260 248 238 238 240 242 243 243 242 235 229 217 207 201 203 207 205 195 191 189 184 182 178 174 171 172 171 169 174 173 172 177 181
311 310 306 314 315 312 309 304 303 302 302 304 307 309 308 309 309 310 311 313 313 312 311 310 310 309 312 311 304 312 319 321 324 321 312 311 315 319 323 326 326 320 319 312 305 298 296 292 290 290 284 275 260 248 237 234 239 241 243 244 237 225 211 201 197 203 205 202 196 190 186 181 171 166 167 174 173 169 169 172 175 176 177 178 174
306 305 307 314 315 313 305 299 298 300 303 305 305 307 307 309 311 313 311 310 309 309 309 309 311 314 316 322 328 333 334 330 324 324 324 323 322 325 325 324 322 319 317 313 311 308 309 308 300 295 285 276 264 242 233 234 236 244 243 237 214 196 194 199 196 193 196 193 188 178 172 163 162 163 170 171 164 165 168 166 165 168 167 163 161
307 308 314 313 314 308 305 305 304 307 304 304 306 309 311 316 316 315 314 312 311 310 310 313 315 317 323 328 332 337 338 326 326 323 322 322 321 319 321 320 319 314 313 310 311 314 315 313 306 307 315 308 274 246 230 231 229 229 211 183 183 183 187 189 190 189 180 173 165 166 164 164 168 169 166 159 158 155 154 158 161 159 158 160 158
307 309 310 310 309 307 309 308 310 311 316 317 320 324 324 321 317 316 314 312 312 316 317 317 319 321 322 329 334 336 331 325 328 324 321 321 319 319 319 322 320 317 312 311 312 315 312 306 306 319 322 340 356 355 351 354 326 240 201 196 182 172 171 154 140 141 140 141 144 145 145 153 154 142 146 145 145 149 155 153 154 155 156 155 157
311 311 309 305 302 301 304 308 313 317 317 326 329 327 325 320 316 314 314 314 317 319 317 319 319 322 321 328 332 333 330 331 326 328 327 327 326 323 322 319 318 319 320 321 325 324 318 314 321 322 333 357 3 7 10 7 18 19 9 11 105 118 128 139 152 153 150 143 137 135 135 136 136 140 139 142 145 146 148 149 151 152 152 154 154
308 311 310 306 305 306 309 311 313 318 321 326 324 322 322 322 321 321 320 319 321 318 321 320 323 320 323 326 329 330 332 332 335 334 333 330 327 324 321 320 321 321 324 328 331 333 333 331 332 338 345 354 1 5 8 10 14 18 12 24 28 42 51 73 89 100 115 127 129 130 134 135 140 141 141 143 148 148 149 154 154 151 149 153 156
312 309 306 306 310 310 314 315 321 320 325 329 327 327 328 326 324 324 324 324 323 323 323 324 322 326 324 325 326 331 333 335 335 335 335 334 331 330 327 325 326 330 331 330 332 337 335 339 342 344 346 347 350 358 5 11 15 17 24 31 45 47 47 58 66 81 90 107 120 125 127 125 127 136 140 142 143 144 145 145 148 153 154 155 156
309 303 306 309 311 312 316 321 323 328 331 326 327 327 328 328 327 328 326 327 328 326 327 327 332 332 333 332 332 334 334 338 337 339 337 335 333 333 333 333 335 337 339 338 341 341 338 336 338 338 338 342 342 356 0 359 6 21 32 40 45 52 47 53 61 68 76 78 94 111 118 124 124 125 126 125 127 132 136 145 148 148 146 148 147
306 307 308 309 311 316 320 325 326 329 326 326 327 328 327 328 331 331 332 331 334 332 331 333 337 337 337 339 339 339 339 338 339 340 340 342 341 340 340 342 345 344 342 345 348 351 354 355 354 354 349 350 355 2 0 4 5 14 21 35 45 59 66 67 69 70 68 78 79 92 103 108 111 114 122 127 129 132 132 131 130 126 132 133 138
311 317 317 320 318 323 322 326 326 327 325 327 326 329 332 334 332 332 330 332 332 332 334 338 339 339 343 341 341 342 341 341 342 346 347 347 344 346 345 346 347 347 350 353 352 353 353 357 360 360 359 359 2 7 9 12 20 23 30 32 53 63 66 72 73 70 75 76 79 83 84 88 96 101 102 105 108 108 108 109 114 118 118 121 126
319 317 316 314 314 313 314 312 311 313 318 319 325 330 333 334 334 335 334 334 335 338 340 340 340 340 340 343 346 346 346 347 347 347 347 346 346 345 347 348 351 354 357 358 358 357 358 356 358 4 10 13 15 16 21 23 27 36 41 52 60 62 63 68 72 74 74 73 77 84 87 91 88 88 89 92 95 100 100 104 107 111 115 115 111
319 317 313 307 310 311 315 315 319 319 319 320 333 336 336 335 331 330 332 335 336 338 337 336 335 338 341 341 342 342 344 343 344 345 345 348 348 349 351 352 352 352 353 357 360 2 2 3 3 1 2 8 15 22 29 36 40 49 60 64 66 65 63 65 68 73 78 81 77 78 85 87 93 91 90 89 90 89 97 97 96 98 100 100 98